Location: Spring Creek
(38.2870°N, 100.2160°W)
Time: 03:51:39
(UTC+00:00)

Cosmos 1908 - Pass Details

Date: 08 May 2021
Orbit: 511 x 528 km, 82.5° (Epoch: 22 June)

Event Time Altitude Azimuth Distance (km) Brightness Sun altitude
Rises 09:05:56 0° 360° (N) 2,660 7.6 -24.5°
Reaches altitude 10° 09:08:10 10° 7° (N) 1,769 6.7 -24.2°
Maximum altitude 09:11:52 42° 80° (E) 761 4.3 -23.7°
Enters shadow 09:12:57 33° 120° (ESE) 893 4.4 -23.6°
